Weather History for Bemidji, MN

Change the Weather History Date:

Monday, December 3, 2012

  Actual Average Record
Temperature  
Mean Temperature 32 °F -  
Max Temperature 45 °F 22 °F 55 °F (1962)
Min Temperature 17 °F 5 °F -25 °F (1985)
Degree Days  
Heating Degree Days 34    
Moisture  
Dew Point 31 °F    
Average Humidity 78    
Maximum Humidity 95    
Minimum Humidity 66    
Precipitation  
Precipitation 0.00 in - - ()
Sea Level Pressure  
Sea Level Pressure 29.55 in    
Wind  
Wind Speed 16 mph (SW)    
Max Wind Speed 29 mph    
Max Gust Speed 36 mph    
Visibility 8 miles    
Events Rain    
Averages and records for this station are not official NWS values.
T = Trace of Precipitation, MM = Missing Value Source: NWS Daily Summary

Daily Weather History Graph

Daily Weather History Graph

Search for Another Location

Airport:

Trip Planner

Search our weather history database for the weather conditions in past years. The results will help you decide how hot, cold, wet, or windy it might be!

Date:

Astronomy

Dec. 03, 2012 Rise Set
Actual Time 7:49 AM CST 4:29 PM CST
Civil Twilight 7:14 AM CST 5:04 PM CST
Nautical Twilight 6:35 AM CST 5:43 PM CST
Astronomical Twilight 5:58 AM CST 6:20 PM CST
Moon 9:29 PM CST (12/3) 11:03 AM CST (12/3)
Length of Visible Light 9h 50m
Length of Day
8h 40m
Waning Gibbous, 78% of the Moon is Illuminated
Dec 3
Waning Gibbous
Dec 6
Last Quarter
Dec 13
New
Dec 19
First Quarter
Dec 28
Full

Hourly Weather History & Observations

Time (CST) Temp. Windchill Dew Point Humidity Pressure Visibility Wind Dir Wind Speed Gust Speed Precip Events Conditions
12:15 AM 40.8 °F 34.1 °F 35.2 °F 80% 29.52 in 7.0 mi SSE 11.5 mph 19.6 mph N/A   Clear
12:35 AM 42.8 °F 34.3 °F 35.4 °F 75% 29.51 in 7.0 mi SSE 19.6 mph 24.2 mph N/A   Clear
12:55 AM 44.6 °F 36.9 °F 35.6 °F 71% 29.50 in 7.0 mi South 18.4 mph 24.2 mph N/A   Clear
1:15 AM 44.1 °F 36.8 °F 35.6 °F 72% 29.49 in 7.0 mi South 16.1 mph 24.2 mph N/A   Clear
1:35 AM 43.9 °F 35.9 °F 35.6 °F 73% 29.48 in 7.0 mi South 18.4 mph 24.2 mph N/A   Clear
1:55 AM 44.1 °F 36.5 °F 36.0 °F 73% 29.47 in 7.0 mi South 17.3 mph 21.9 mph N/A   Clear
2:15 AM 44.8 °F 37.4 °F 36.0 °F 71% 29.47 in 7.0 mi South 17.3 mph 23.0 mph N/A   Clear
2:35 AM 44.8 °F 37.7 °F 36.0 °F 71% 29.47 in 7.0 mi South 16.1 mph 24.2 mph N/A   Clear
2:55 AM 44.8 °F 38.0 °F 36.0 °F 71% 29.47 in 10.0 mi South 15.0 mph 21.9 mph N/A   Clear
3:15 AM 44.8 °F 38.3 °F 36.1 °F 72% 29.47 in 7.0 mi South 13.8 mph 24.2 mph N/A   Clear
3:35 AM 44.6 °F 37.4 °F 36.3 °F 73% 29.46 in 7.0 mi South 16.1 mph 23.0 mph N/A   Clear
3:55 AM 44.4 °F 37.5 °F 36.5 °F 74% 29.45 in 7.0 mi South 15.0 mph 25.3 mph N/A   Clear
4:15 AM 44.4 °F 36.9 °F 36.7 °F 74% 29.44 in 7.0 mi South 17.3 mph 21.9 mph N/A   Clear
4:35 AM 44.1 °F 36.5 °F 36.7 °F 75% 29.43 in 7.0 mi South 17.3 mph - N/A   Clear
4:55 AM 44.1 °F 37.7 °F 37.2 °F 77% 29.43 in 7.0 mi South 12.7 mph 19.6 mph N/A   Clear
5:15 AM 44.4 °F 38.6 °F 37.2 °F 76% 29.43 in 10.0 mi South 11.5 mph 17.3 mph N/A   Clear
5:55 AM 43.3 °F 37.2 °F 37.0 °F 78% 29.43 in 7.0 mi South 11.5 mph - N/A   Clear
6:15 AM 43.0 °F 36.4 °F 37.2 °F 80% 29.42 in 7.0 mi South 12.7 mph - N/A   Clear
6:35 AM 43.2 °F 35.9 °F 37.6 °F 81% 29.41 in 7.0 mi South 15.0 mph 19.6 mph N/A   Clear
6:55 AM 43.2 °F 36.2 °F 37.8 °F 81% 29.41 in 7.0 mi South 13.8 mph 19.6 mph N/A   Clear
7:15 AM 43.0 °F 35.7 °F 38.1 °F 83% 29.41 in 7.0 mi South 15.0 mph 20.7 mph N/A   Clear
7:55 AM 42.8 °F 36.6 °F 39.0 °F 86% 29.42 in 5.0 mi South 11.5 mph 17.3 mph N/A   Mostly Cloudy
8:15 AM 42.8 °F 36.6 °F 39.6 °F 88% 29.42 in 5.0 mi South 11.5 mph 19.6 mph N/A   Overcast
8:35 AM 43.0 °F 36.8 °F 40.1 °F 90% 29.41 in 5.0 mi South 11.5 mph - N/A   Overcast
8:55 AM 43.5 °F 37.5 °F 40.6 °F 90% 29.42 in 4.0 mi South 11.5 mph 16.1 mph N/A   Overcast
9:15 AM 43.9 °F 38.8 °F 41.0 °F 90% 29.41 in 4.0 mi South 9.2 mph - N/A   Overcast
9:35 AM 44.2 °F 38.8 °F 41.4 °F 90% 29.43 in 4.0 mi South 10.4 mph 16.1 mph N/A   Overcast
9:55 AM 45.0 °F 39.3 °F 41.9 °F 89% 29.43 in 5.0 mi SSW 11.5 mph - N/A   Overcast
10:35 AM 45.5 °F 38.9 °F 41.0 °F 84% 29.44 in 5.0 mi SSW 15.0 mph - N/A   Overcast
10:55 AM 45.5 °F 40.3 °F 40.6 °F 83% 29.44 in 5.0 mi SW 10.4 mph - N/A   Haze
11:15 AM 45.3 °F 38.1 °F 39.0 °F 79% 29.46 in 7.0 mi WSW 17.3 mph - N/A   Overcast
11:55 AM 41.7 °F 34.1 °F 37.8 °F 86% 29.49 in 7.0 mi West 15.0 mph 21.9 mph N/A Rain Light Rain
12:15 PM 40.6 °F 33.8 °F 38.3 °F 91% 29.48 in 7.0 mi West 11.5 mph - N/A Rain Light Rain
12:35 PM 40.1 °F 33.6 °F 38.5 °F 94% 29.47 in 10.0 mi West 10.4 mph - N/A Rain Light Rain
12:55 PM 40.3 °F 33.9 °F 38.8 °F 95% 29.49 in 7.0 mi WSW 10.4 mph 16.1 mph N/A   Overcast
1:15 PM 40.5 °F 31.8 °F 38.8 °F 94% 29.51 in 7.0 mi West 17.3 mph 25.3 mph N/A   Overcast
1:35 PM 40.3 °F 31.6 °F 38.1 °F 92% 29.51 in 5.0 mi West 17.3 mph 24.2 mph N/A   Overcast
1:55 PM 40.1 °F 30.7 °F 36.9 °F 88% 29.53 in 10.0 mi West 19.6 mph 26.5 mph N/A   Overcast
2:15 PM 39.7 °F 31.2 °F 35.6 °F 85% 29.53 in 7.0 mi West 16.1 mph 25.3 mph N/A   Overcast
2:35 PM 40.3 °F 29.9 °F 35.4 °F 83% 29.54 in 7.0 mi West 24.2 mph 29.9 mph N/A   Overcast
2:55 PM 40.6 °F 31.2 °F 35.1 °F 80% 29.55 in 7.0 mi West 20.7 mph 29.9 mph N/A   Overcast
3:15 PM 40.6 °F 31.7 °F 34.5 °F 79% 29.55 in 7.0 mi West 18.4 mph 27.6 mph N/A   Mostly Cloudy
3:55 PM 40.1 °F 30.5 °F 32.0 °F 73% 29.58 in 10.0 mi West 20.7 mph 25.3 mph N/A   Mostly Cloudy
4:15 PM 39.0 °F 30.6 °F 32.0 °F 76% 29.59 in 7.0 mi West 15.0 mph 23.0 mph N/A   Mostly Cloudy
4:35 PM 37.9 °F 27.3 °F 31.5 °F 77% 29.60 in 10.0 mi West 21.9 mph 31.1 mph N/A   Scattered Clouds
4:55 PM 37.0 °F 25.6 °F 30.2 °F 76% 29.62 in 7.0 mi West 24.2 mph 31.1 mph N/A   Clear
5:15 PM 36.1 °F 24.2 °F 28.8 °F 75% 29.62 in 10.0 mi West 25.3 mph 31.1 mph N/A   Scattered Clouds
5:55 PM 35.1 °F 24.1 °F 27.7 °F 74% 29.64 in 7.0 mi West 19.6 mph 31.1 mph N/A   Mostly Cloudy
6:15 PM 35.1 °F 23.5 °F 28.0 °F 76% 29.65 in 10.0 mi West 21.9 mph 25.3 mph N/A   Overcast
6:35 PM 34.9 °F 23.9 °F 28.2 °F 77% 29.66 in 7.0 mi West 19.6 mph 31.1 mph N/A   Overcast
6:55 PM 33.4 °F 21.7 °F 25.7 °F 73% 29.67 in 10.0 mi West 20.7 mph 33.4 mph N/A   Overcast
7:15 PM 31.8 °F 18.7 °F 23.7 °F 72% 29.69 in 7.0 mi West 24.2 mph 31.1 mph N/A   Mostly Cloudy
7:35 PM 30.2 °F 16.5 °F 21.2 °F 69% 29.70 in 10.0 mi West 24.2 mph 31.1 mph N/A   Mostly Cloudy
7:55 PM 28.6 °F 13.2 °F 19.4 °F 69% 29.71 in 7.0 mi West 28.8 mph 34.5 mph N/A   Scattered Clouds
8:15 PM 27.7 °F 13.8 °F 17.8 °F 66% 29.72 in 10.0 mi West 21.9 mph 34.5 mph N/A   Scattered Clouds
8:35 PM 27.3 °F 13.0 °F 17.4 °F 66% 29.73 in 10.0 mi West 23.0 mph 34.5 mph N/A   Mostly Cloudy
8:55 PM 26.2 °F 12.6 °F 16.5 °F 67% 29.74 in 10.0 mi West 19.6 mph 31.1 mph N/A   Mostly Cloudy
9:15 PM 24.8 °F 9.0 °F 15.4 °F 68% 29.76 in 10.0 mi West 25.3 mph 31.1 mph N/A   Mostly Cloudy
9:35 PM 23.4 °F 9.6 °F 14.4 °F 68% 29.77 in 10.0 mi West 17.3 mph 27.6 mph N/A   Scattered Clouds
9:55 PM 22.3 °F 5.0 °F 14.0 °F 71% 29.78 in 10.0 mi West 27.6 mph 35.7 mph N/A   Scattered Clouds
10:15 PM 21.4 °F 5.8 °F 12.7 °F 69% 29.78 in 10.0 mi West 20.7 mph 29.9 mph N/A   Scattered Clouds
10:35 PM 20.1 °F 5.4 °F 12.2 °F 71% 29.79 in 10.0 mi West 17.3 mph 28.8 mph N/A   Scattered Clouds
10:55 PM 19.4 °F 6.6 °F 12.0 °F 73% 29.79 in 10.0 mi West 12.7 mph 19.6 mph N/A   Clear
11:15 PM 18.9 °F 3.8 °F 11.3 °F 72% 29.81 in 10.0 mi West 17.3 mph 21.9 mph N/A   Scattered Clouds
11:35 PM 18.0 °F 3.1 °F 10.4 °F 72% 29.82 in 10.0 mi West 16.1 mph 26.5 mph N/A   Scattered Clouds
11:55 PM 17.2 °F 1.7 °F 9.7 °F 72% 29.83 in 10.0 mi West 17.3 mph 23.0 mph N/A   Scattered Clouds